Zurück zum Katalog

ATLAS 5 CENTAUR DEB

LostHEO
NORAD 51479·DEBRIS·🇺🇸 United States

Gestartet Sep 17, 2014 von Cape Canaveral Space Force Station

Loading…

Nächste Überflüge (nächste 24 Stunden)

TLE

VeraltetSource: Space-Track

Epoche: Sep 7, 2024, 11:58 UTC

1 51479U 14055DK  24251.49910605  .00000005  00000-0  00000+0 0  9993
2 51479  19.9020 203.0401 4908736  66.2158 336.9512  1.88717546 41409

Verfolge ATLAS 5 CENTAUR DEB in Echtzeit mit AllMySat

Download on the App Store